Location: Craula
(51.0639°N, 10.4917°E)
Time: 16:30:20
(UTC+00:00)

Daily predictions for brighter satellites

Satellite Brightness Start Highest point End
(mag) Time Altitude Azimuth Time Altitude Azimuth Time Altitude Azimuth
Cosmos 1656 4.1 16:22:46 10° NNW 16:28:21 69° WSW 16:33:47 10° SSE
Cosmos 1943 4.4 16:24:40 10° WSW 16:29:56 39° NW 16:35:16 10° NNE
Meteor 1-21 4.3 16:29:07 10° SSW 16:34:43 87° WNW 16:40:22 10° NNE
Okean 2 3.2 16:33:01 10° S 16:36:50 68° E 16:40:40 10° NNE
ATLAS 3B R/B 4.0 16:30:04 10° WNW 16:37:02 32° N 16:43:55 10° ENE
Cosmos 1821 Rocket 4.1 16:33:57 10° N 16:40:09 84° W 16:46:15 10° S
ARIANE 5 R/B 2.5 16:35:17 10° SSE 16:40:27 70° ENE 16:45:37 10° NNW
USA 305 3.2 16:37:48 10° SW 16:41:13 42° SE 16:44:56 11° ENE
YAOGAN 1 3.4 16:38:06 10° ESE 16:41:42 27° ENE 16:45:18 10° N
Cosmos 1340 Rocket 2.9 16:39:11 10° NNW 16:43:02 76° W 16:46:52 10° S
BREEZE-M DEB (TANK) 3.0 16:40:18 10° W 16:45:41 90° NNE 16:50:12 10° E
CZ-2D R/B 2.6 16:43:24 10° SSE 16:46:29 61° ENE 16:49:34 10° N
COSMOS 2455 2.9 16:40:36 10° NNW 16:46:35 62° NE 16:52:33 10° SE
SAR-Lupe-1 4.4 16:44:38 10° SE 16:48:01 42° ENE 16:51:26 10° N
NOSS 3-4 (A) 3.8 16:43:03 10° WSW 16:48:20 55° NW 16:54:20 10° NE
NOSS 3-4 (C) 3.8 16:43:12 10° WSW 16:48:31 55° NW 16:54:32 10° NE
BREEZE-M DEB (TANK) 4.4 16:50:16 10° W 16:52:54 31° SSW 17:00:14 10° SE
Cosmos 2237 Rocket 4.4 16:52:00 10° NNW 16:53:20 11° NNW 16:54:40 10° N
Cosmos 1515 Rocket 4.4 16:49:37 10° SSW 16:53:57 55° WNW 16:58:20 10° N
Cosmos 1707 Rocket 4.5 16:51:13 10° SE 16:54:48 26° E 16:58:24 10° NNE
UNK 3.7 16:51:04 10° NNE 16:55:38 84° ESE 17:00:09 10° SSW
PSLV R/B 4.4 16:52:34 10° ESE 16:56:03 26° ENE 16:59:33 10° N
CZ-2D R/B 3.9 16:54:24 10° SE 16:57:49 32° ENE 17:01:16 10° N
NOSS 3-1 (A) 4.0 16:51:55 10° NW 16:58:25 56° NE 17:06:38 10° ESE
Cosmos 2322 Rocket 3.9 16:57:40 10° N 17:00:40 14° NNE 17:02:57 12° NE
USA 276 1.9 16:59:00 10° W 17:01:13 54° S 17:03:12 14° ESE
SL-16 R/B 4.4 16:58:52 10° WNW 17:02:20 16° NNW 17:05:48 10° N
Cosmos 1302 Rocket 4.1 16:57:10 10° SSW 17:02:26 81° WNW 17:07:45 10° NNE
RESURS DK-1 3.3 16:58:39 10° SW 17:02:28 43° NW 17:06:18 10° NNE
SAR-Lupe-4 3.5 17:00:45 10° SSE 17:04:18 67° ENE 17:07:53 10° N
SKYMED 2 4.0 17:02:12 10° NNE 17:06:21 41° E 17:10:27 10° S
NOSS 3-1 (C) 4.0 17:01:11 10° NW 17:08:03 89° SW 17:16:43 10° SE
Cosmos 1934 Rocket 4.0 17:02:40 10° N 17:08:51 66° ENE 17:15:04 10° SSE
Radarsat Rocket 4.1 17:03:38 10° SE 17:09:19 50° ENE 17:14:56 10° N
SJ-12 4.1 17:06:35 10° S 17:10:23 69° WSW 17:14:13 10° NNW
CARTOSAT-1 4.2 17:09:50 10° SE 17:13:35 32° ENE 17:17:22 10° N
Cosmos 1733 Rocket 3.0 17:10:46 10° N 17:15:08 66° ENE 17:19:26 10° SSE
Cosmos 2333 Rocket 3.6 17:13:12 10° NNW 17:17:20 20° NNE 17:19:13 17° ENE
MOS 1 Rocket 4.4 17:13:03 10° S 17:17:59 50° W 17:22:40 10° NNW
USA 59 Rocket 1.5 17:14:51 10° WNW 17:18:03 35° SW 17:22:09 10° SSE
Cosmos 1980 Rocket 2.2 17:14:42 10° NNW 17:20:15 59° NE 17:25:48 10° SE
Cosmos 1992 Rocket 3.9 17:16:12 10° SSW 17:21:23 86° ESE 17:26:37 10° NNE
Meteor 2-19 Rocket 4.5 17:23:02 10° S 17:28:58 57° E 17:34:56 10° NNE
Cosmos 2369 4.0 17:25:15 10° NNW 17:30:41 44° NE 17:35:01 15° ESE
Okean 3 4.5 17:30:34 10° SSW 17:34:26 44° WNW 17:38:19 10° N
ATLAS 5 CENTAUR R/B 3.4 17:33:09 10° NW 17:34:47 13° N 17:36:00 11° NNE
Cosmos 2219 Rocket 3.9 17:32:53 10° N 17:35:53 14° NNE 17:36:42 14° NE
Cosmos 1486 Rocket 3.9 17:32:14 10° NNW 17:37:35 82° ENE 17:42:51 10° SSE
ARIANE 6 FM1 Upper Stage 3.5 17:35:28 10° S 17:38:59 28° SE 17:39:22 28° ESE
Cosmos 1697 Rocket 3.5 17:35:20 10° NW 17:40:51 54° WSW 17:46:19 10° S
BREEZE-M DEB (TANK) 3.3 17:38:04 10° WSW 17:41:24 70° SSE 17:47:10 23° E
ISS -3.8 17:42:16 10° W 17:45:37 85° SSW 17:46:23 50° ESE
NOAA 6 3.9 17:41:19 10° SSE 17:46:23 72° ENE 17:51:32 10° NNW
Okean 1-7 2.7 17:42:31 10° S 17:46:37 75° E 17:50:42 10° NNE
Cosmos 1833 Rocket 2.9 17:41:22 10° SW 17:47:00 72° WNW 17:52:08 13° NNE
Cosmos 1354 Rocket 4.1 17:42:31 10° NNW 17:47:39 51° ENE 17:51:11 20° SE
SPOT 1/Viking Rocket 4.3 17:43:04 10° S 17:48:05 54° W 17:53:08 10° NNW
SL-16 R/B 4.2 17:43:45 10° N 17:49:01 30° WNW 17:54:15 10° WSW
Cosmos 2360 Rocket 3.5 17:45:50 10° NNW 17:50:01 21° NE 17:50:14 21° NE
USA 267 3.5 17:46:25 26° ENE 17:50:08 57° N 17:56:31 10° WNW
BlueWalker 3 2.3 17:48:34 10° SW 17:51:56 40° SSE 17:52:09 40° SE
Resurs 01 Rocket 1.5 17:49:02 10° SSE 17:53:19 60° ENE 17:57:39 10° N
Cosmos 2228 Rocket 2.9 17:49:57 10° S 17:54:24 78° E 17:58:50 10° NNE
IRAS Rocket 4.1 17:49:47 10° SSE 17:55:16 69° ENE 18:00:52 10° NNW
Cosmos 2082 Rocket 2.7 17:50:57 10° S 17:56:00 36° ESE 17:56:44 34° E
Timation 1 Rocket 4.3 17:50:56 10° SSW 17:56:46 60° ESE 18:00:00 27° NE
Cosmos 2237 4.3 17:54:12 10° NNW 17:59:48 53° NE 18:02:06 33° ESE
SL-16 R/B 2.8 17:55:35 10° NNW 18:00:45 35° NE 18:01:19 34° ENE
COSMO-SKYMED 1 2.3 17:58:32 17° NNE 18:01:45 88° ESE 18:05:51 10° SSW
SJ-6B 4.5 18:04:21 18° N 18:04:21 18° N 18:05:26 10° N
Cosmos 1777 Rocket 4.0 17:57:19 10° NNW 18:02:32 79° WSW 18:07:44 10° SSE
Spot 4 Rocket 4.3 17:58:25 10° S 18:03:29 67° WSW 18:08:37 10° NNW
USA 305 2.6 18:03:39 10° WSW 18:07:33 69° NNW 18:07:59 63° NNE
Cosmos 990 Rocket 3.9 18:04:19 10° NNW 18:09:33 67° ENE 18:11:49 34° SE
Meteor 2-14 Rocket 4.4 18:09:39 10° S 18:15:37 58° E 18:21:39 10° NNE
Cosmos 2173 Rocket 4.2 18:10:50 10° N 18:17:00 48° ENE 18:18:25 41° ESE
YAOGAN 1 4.0 18:13:25 10° SSW 18:17:25 38° W 18:21:25 10° NNW
Cosmos 1862 Rocket 4.5 18:13:28 10° SSW 18:17:44 48° WNW 18:22:00 10° N
Meteor 1-24 Rocket 3.7 18:14:28 10° S 18:20:15 82° E 18:26:15 10° NNE
Meteor 2-21 4.5 18:19:36 10° SSE 18:25:35 54° E 18:31:37 10° NNE
Cosmos 1908 Rocket 3.6 18:22:38 10° NNW 18:27:01 76° W 18:31:24 10° S
Cosmos 1898 Rocket 4.4 18:23:33 10° NNW 18:27:11 34° NNE 18:27:11 34° NNE
Cosmos 909 Rocket 4.3 18:22:05 10° SW 18:29:21 72° NW 18:32:44 30° NNE
ATLAS 3B R/B 3.4 18:22:12 10° NW 18:29:45 45° NNE 18:31:24 40° ENE
DMSP B5D1-3 4.4 18:29:09 28° NNE 18:31:57 89° WNW 18:37:02 10° SSW
Cosmos 1809 Rocket 4.3 18:33:55 10° S 18:40:06 87° E 18:46:21 10° N
Cosmos 2237 Rocket 4.4 18:38:41 10° N 18:39:57 11° NNE 18:39:57 11° NNE
Cosmos 1727 Rocket 3.8 18:37:18 10° S 18:43:34 75° E 18:49:49 10° NNE
Meteor 2-5 Rocket 3.9 18:39:29 10° SSW 18:45:07 74° WNW 18:50:55 10° N
Cosmos 2322 Rocket 3.1 18:40:59 10° NNW 18:44:45 34° NNE 18:44:45 34° NNE
Cosmos 2278 4.1 18:41:13 10° NNW 18:45:42 48° NNE 18:45:42 48° NNE
Aureole 1 Rocket 3.6 18:43:03 10° NNW 18:49:36 78° NE 18:49:36 78° NE
USA 215 4.1 18:59:01 34° SSE 18:59:01 34° SSE 19:03:22 10° SSW
Cosmos 540 Rocket 4.2 18:53:36 10° SSW 18:56:55 42° SSW 18:56:55 42° SSW
ATLAS 2AS CENTAUR R/B 4.0 18:54:01 10° S 18:57:06 25° SSE 18:57:06 25° SSE
Cosmos 2333 Rocket 2.8 18:57:02 10° NNW 19:01:16 48° N 19:01:16 48° N
Cosmos 1980 Rocket 4.0 18:59:12 10° NW 19:03:53 28° WSW 19:08:34 10° SSW
CSL-04 Rocket 4.0 19:05:33 56° NNW 19:05:33 56° NNW 19:09:44 10° NNW
Cosmos 1763 Rocket 4.1 19:00:34 10° SSW 19:04:21 49° SW 19:04:21 49° SW
USA 229 DEB 3.9 19:14:06 10° NW 19:20:58 69° NNE 19:20:58 69° NNE
Cosmos 2219 Rocket 3.9 19:16:04 10° NNW 19:18:23 23° N 19:18:23 23° N
USA 229 3.9 19:14:10 10° NW 19:21:02 68° NNE 19:21:02 68° NNE
ISS -0.2 19:19:12 10° W 19:19:19 11° W 19:19:19 11° W
Resurs 01 Rocket 4.2 19:27:04 10° SW 19:30:05 18° W 19:33:07 10° NW
USA 267 3.3 19:33:46 71° WNW 19:33:46 71° WNW 19:39:34 10° WNW
Cosmos 2360 Rocket 3.7 19:29:20 10° NNW 19:32:00 29° NNW 19:32:00 29° NNW
Cosmos 2082 Rocket 3.3 19:34:31 10° SW 19:38:38 40° W 19:38:38 40° W
SL-16 R/B 3.5 19:39:35 10° NW 19:43:11 37° WNW 19:43:11 37° WNW
ATLAS 3B R/B 3.7 20:13:19 10° NW 20:18:40 47° NW 20:18:40 47° NW
